Location: *
(50.5492°N, 7.7469°E)
Time: 20:05:30
(UTC+00:00)

USA 238 DEB - Pass Details

Date: 21 October 2019
Orbit: 1028 x 1184 km, 63.4° (Epoch: 11 November)

Event Time Altitude Azimuth Distance (km) Brightness Sun altitude
Rises 17:09:12 0° 186° (S) 3,773 6.8 -7.6°
Reaches altitude 10° 17:12:02 10° 177° (S) 2,836 6.0 -8.0°
Maximum altitude 17:17:51 33° 116° (ESE) 1,695 4.4 -9.0°
Drops below altitude 10° 17:23:52 10° 55° (NE) 2,927 5.5 -9.9°
Enters shadow 17:25:07 - 51° (NE) 3,335 5.8 -10.1°
